Temperature
22 22 21 21 21 22 23 24 25 24 25 25 25 24 24 23 21 19 19 19 19 18 18 18 18 18 17 17 17 17 17 17 18 18 18 18 18 18 18 18 18 18 18 18 18 18 18 18 18
22 21 22 22 22 22 23 24 24 24 25 25 24 24 23 22 21 19 19 19 18 18 17 18 17 17 17 17 17 17 17 17 17 17 17 17 17 17 17 17 18 18 17 18 18 18 18 18 18
22 22 22 23 23 23 23 24 24 25 25 25 25 24 23 22 21 19 19 19 18 18 18 18 17 17 17 17 17 17 17 17 17 17 17 17 17 17 17 17 17 17 17 17 17 17 18 18 18
22 23 24 23 24 24 25 25 25 25 25 25 24 23 22 21 20 19 19 19 18 18 18 18 18 17 17 17 17 17 17 17 17 17 17 17 17 17 17 17 17 17 17 17 17 17 17 17 17
23 23 23 23 24 25 25 26 25 25 25 25 24 23 21 20 20 19 19 19 18 18 18 18 18 17 17 17 17 17 17 17 17 17 17 17 17 17 17 17 17 17 17 17 17 17 17 17 17
23 24 23 23 24 25 26 25 25 25 25 25 24 23 21 20 20 19 19 19 18 18 18 18 18 17 17 17 17 17 17 17 17 17 17 17 17 17 17 17 17 17 17 17 17 17 17 17 17
24 23 23 24 24 24 25 25 25 25 25 25 24 23 21 20 20 19 19 19 18 18 18 18 18 17 17 17 17 17 17 17 17 17 17 17 17 17 17 17 17 17 17 17 17 17 17 17 17
24 23 24 24 24 24 25 25 25 25 25 24 24 23 21 20 19 19 19 19 18 18 18 18 18 17 17 17 17 17 17 17 17 17 17 17 17 17 17 17 17 17 17 17 17 17 17 17 17
24 23 23 24 24 24 25 25 25 25 24 24 23 22 21 20 20 19 19 19 18 18 18 18 18 17 17 17 17 17 17 17 17 17 17 17 17 17 17 17 17 17 17 17 17 17 16 16 16
25 23 24 25 25 25 25 25 25 25 24 24 23 22 21 20 20 19 19 19 18 18 18 18 18 18 17 17 17 17 17 17 17 17 17 17 17 16 16 16 17 17 16 16 16 16 16 16 16
25 24 25 26 26 25 25 25 25 25 24 24 23 22 21 21 20 20 20 19 19 19 18 18 18 18 18 17 17 17 17 17 17 17 17 17 17 16 16 16 16 16 16 16 16 16 16 16 16
26 26 26 26 26 25 25 25 25 24 24 24 23 22 21 21 21 21 20 20 19 19 19 18 18 18 18 18 17 17 17 17 17 17 17 17 16 16 16 16 16 16 16 16 16 16 16 16 16
26 26 26 25 25 25 25 25 25 24 24 24 23 22 22 22 21 21 21 20 19 19 19 18 18 18 18 18 17 17 17 17 17 17 17 17 16 16 16 16 16 16 16 16 16 16 16 16 16
26 26 26 26 25 25 25 25 25 24 24 24 23 23 22 22 21 21 21 20 20 19 19 18 18 18 18 18 17 17 17 17 17 17 16 16 16 16 16 16 16 16 16 16 16 16 16 15 15
26 25 25 26 26 25 25 24 25 24 24 24 23 23 22 22 21 21 21 20 20 20 19 19 18 18 18 17 17 17 17 17 16 16 16 16 16 16 16 16 16 16 16 16 15 15 15 15 15
26 25 24 25 26 26 25 23 25 25 24 24 23 23 22 22 21 21 21 20 20 20 19 19 18 18 18 17 17 17 17 17 16 16 16 16 16 16 16 16 16 16 15 15 15 15 15 15 15
25 24 24 25 26 26 25 24 25 25 24 24 23 23 22 22 21 21 21 21 20 20 19 19 18 18 18 17 17 17 17 16 16 16 16 16 16 16 16 16 15 15 15 15 15 15 15 15 15
24 25 25 25 26 26 25 24 25 25 25 24 24 23 22 22 22 21 21 21 20 20 20 19 18 18 18 17 17 17 16 16 16 16 16 16 16 16 16 15 15 15 15 15 15 15 15 15 15
25 25 25 25 26 25 25 25 25 25 25 25 24 24 23 22 22 22 21 21 20 20 20 19 18 18 18 17 17 16 16 16 16 16 16 16 15 15 15 15 15 15 15 15 15 15 15 15 15
25 25 25 25 26 25 25 25 26 25 25 25 24 24 23 23 22 22 21 20 20 20 19 19 19 18 18 17 17 16 16 16 16 16 15 15 15 15 15 15 15 15 15 14 14 14 14 14 14
25 25 25 25 26 26 25 24 25 25 25 25 25 24 24 23 22 22 21 21 20 20 19 19 19 18 18 17 17 16 16 16 16 15 15 15 15 15 15 15 15 15 15 14 14 14 14 14 14
25 26 25 25 24 24 25 23 24 25 24 24 24 24 24 23 23 22 21 21 20 20 19 19 18 18 17 17 17 16 16 16 16 15 15 15 15 15 15 15 15 14 14 14 14 14 14 14 14
25 26 25 25 24 24 25 24 24 25 24 24 24 24 24 23 23 22 21 20 20 19 19 19 18 18 17 17 17 16 16 16 16 15 15 15 15 15 15 15 14 14 14 14 14 14 14 14 14
26 25 25 25 24 22 24 24 23 24 24 24 24 24 23 23 22 21 21 20 20 19 19 18 18 18 17 17 16 16 16 16 16 15 15 15 15 15 15 15 14 14 14 14 14 14 14 14 14
25 24 22 22 22 22 25 24 23 24 25 25 24 24 23 22 22 21 20 20 19 19 19 18 18 17 17 17 16 16 16 16 16 15 15 15 15 15 15 14 14 14 14 14 14 14 14 14 14
25 24 22 21 22 23 24 24 24 25 25 24 24 23 22 22 21 20 20 19 19 18 18 18 17 17 17 16 16 16 16 16 16 15 15 15 15 15 14 14 14 14 14 14 14 13 13 13 13
24 24 25 23 23 22 23 24 24 24 24 24 23 23 22 21 21 20 19 19 18 18 18 17 17 17 17 16 16 16 16 16 16 15 15 15 15 15 15 14 14 14 14 14 14 13 13 13 13
25 24 24 23 22 21 22 23 22 22 23 23 23 22 21 21 20 20 19 18 18 18 17 17 17 17 16 16 16 16 16 16 16 16 15 15 15 15 15 14 14 14 14 14 13 13 13 13 13
24 24 23 23 23 21 21 21 23 22 22 22 22 22 21 20 20 19 19 18 18 17 17 17 17 16 16 16 16 16 16 16 16 15 15 15 15 15 15 14 14 14 14 14 13 13 13 13 13
24 24 23 21 22 22 21 21 23 23 22 22 22 21 21 20 20 19 18 18 18 17 17 16 16 16 16 16 16 16 15 15 15 15 15 15 15 15 14 14 14 14 14 13 13 13 13 13 13
Wind_Speed
10 12 8 3 2 1 5 6 6 6 6 8 7 7 10 12 8 7 3 5 7 10 11 11 9 9 9 9 9 9 9 8 8 9 9 9 8 9 9 9 9 9 10 10 10 11 11 11 10
10 6 4 3 2 2 5 6 8 8 6 5 6 8 10 11 10 8 4 5 7 10 12 11 9 9 9 9 9 9 9 8 8 9 9 9 8 8 9 9 10 10 10 10 10 10 10 10 10
11 7 4 2 2 5 6 7 8 7 5 4 6 9 8 6 8 6 5 6 8 11 13 12 10 9 9 9 9 9 10 9 9 9 9 9 9 10 9 9 10 10 10 11 11 11 10 10 10
6 4 3 1 5 8 7 7 5 5 5 5 6 8 8 8 6 8 7 7 9 10 13 12 10 9 9 10 10 10 10 9 9 9 9 9 9 10 10 10 11 11 11 11 11 11 11 10 10
4 2 1 2 6 8 7 6 5 5 5 7 8 10 9 9 9 10 7 7 8 10 12 12 11 10 10 10 10 10 10 10 10 10 10 10 10 10 11 11 11 11 11 11 11 10 11 10 10
3 2 1 3 7 6 5 5 4 6 6 6 7 9 8 8 8 7 7 6 8 9 11 12 11 11 11 10 10 10 10 10 10 10 10 10 10 10 11 11 11 11 10 10 10 10 10 10 9
2 2 1 4 5 5 5 4 5 5 6 6 5 8 8 8 7 6 7 7 7 7 9 10 11 11 10 10 10 9 8 8 8 9 9 9 10 10 10 10 10 11 10 10 9 9 9 8 8
3 2 1 3 4 5 4 3 4 4 6 5 4 6 8 9 8 7 7 7 6 6 6 7 8 10 10 9 9 8 7 6 6 6 7 9 9 9 9 10 10 10 10 10 9 8 8 7 6
2 1 2 3 3 4 4 3 4 4 6 6 8 11 11 12 10 7 6 6 5 5 4 5 5 7 8 9 9 8 7 5 5 5 5 6 6 8 8 9 10 10 10 9 9 8 7 6 5
1 1 3 3 3 3 3 3 3 3 5 6 9 12 12 11 9 8 7 7 5 4 4 4 5 5 6 6 7 5 6 5 4 5 6 5 6 7 9 10 10 9 9 8 7 6 4 2 3
1 0 2 3 3 2 2 2 2 2 3 5 9 11 10 9 8 7 7 7 6 5 4 3 4 5 5 4 5 3 4 4 3 4 7 6 6 6 7 6 7 7 6 5 6 4 3 4 5
1 0 1 2 3 2 1 1 2 2 2 5 8 10 10 8 7 6 7 8 7 6 5 4 4 4 5 5 4 3 2 3 3 4 7 6 3 3 3 3 3 4 4 3 4 3 4 5 7
2 1 1 1 1 1 1 1 1 2 3 6 8 10 8 8 7 6 6 8 8 7 5 4 4 4 4 4 2 4 3 2 4 4 5 6 3 3 3 3 3 4 4 4 3 4 5 5 7
1 1 2 3 2 2 1 2 3 4 5 7 7 8 8 6 6 6 6 7 8 7 6 5 4 4 4 4 3 3 3 3 4 3 3 7 5 3 3 3 3 3 4 4 4 5 5 5 5
4 3 3 3 4 3 2 3 4 6 7 7 7 7 8 7 6 5 6 6 6 7 7 6 5 4 5 5 4 4 3 4 3 3 4 6 6 4 4 3 2 3 4 4 4 5 5 4 4
6 5 4 5 5 5 4 3 3 6 7 7 7 7 7 7 6 5 6 6 6 6 7 6 5 6 5 5 4 3 4 4 3 3 4 5 7 6 4 3 2 4 4 3 3 4 4 4 4
6 6 5 4 6 4 5 3 4 6 7 7 7 8 8 8 8 6 6 6 6 6 7 7 6 5 6 5 4 3 4 3 3 4 4 4 6 6 5 2 2 4 3 2 3 3 4 4 3
5 5 4 3 4 5 5 5 5 6 8 8 8 8 9 8 8 8 7 6 5 6 6 8 7 5 6 4 4 3 3 2 3 3 3 4 5 7 4 2 3 4 3 3 3 3 3 3 2
6 6 6 3 2 3 5 6 5 7 6 6 7 7 9 9 8 8 7 7 6 5 5 7 7 5 5 4 3 3 3 2 2 2 4 4 3 5 4 3 3 3 2 2 3 3 3 2 2
8 8 6 3 3 3 5 6 5 7 7 7 7 7 8 8 9 8 8 7 7 6 5 6 6 5 6 4 3 3 3 2 3 2 3 3 3 4 4 3 3 3 2 3 3 3 2 1 1
9 7 6 5 4 7 7 6 6 7 7 6 6 6 7 8 9 9 8 7 7 6 6 5 6 6 6 5 3 3 3 2 3 2 2 1 3 3 3 3 3 3 3 2 2 2 2 1 1
7 4 6 7 7 6 6 4 4 7 7 6 5 5 5 7 8 8 7 7 6 5 5 5 5 6 6 6 4 4 4 3 3 3 3 2 3 3 3 2 2 2 3 3 2 2 1 1 0
7 6 8 9 8 9 9 6 3 6 6 7 6 6 5 6 7 8 7 6 6 6 5 4 4 5 5 5 5 3 3 3 3 3 5 3 3 3 3 2 2 2 2 3 2 2 1 1 1
6 8 9 9 7 9 9 6 2 2 3 5 6 6 6 6 7 7 7 6 5 5 5 4 4 5 5 5 5 5 4 4 3 4 4 3 3 2 3 3 2 2 2 2 2 2 1 1 1
7 7 4 4 5 6 5 3 2 3 3 3 4 5 6 6 6 6 6 7 6 6 6 5 5 5 5 5 5 5 4 4 4 4 4 4 3 2 3 3 2 2 2 2 2 2 2 2 1
6 8 5 4 4 4 3 2 4 6 5 5 4 4 5 5 5 6 5 5 6 6 6 6 5 5 5 4 4 4 4 3 3 4 4 4 3 3 4 3 3 3 3 2 2 2 2 2 2
7 7 6 6 8 7 3 2 4 5 5 5 4 4 4 5 4 6 6 5 5 5 5 4 5 5 5 4 3 3 4 3 3 4 4 3 3 3 4 4 4 4 3 3 3 2 2 1 1
8 7 5 4 4 5 5 3 2 3 4 4 3 2 3 4 4 4 5 5 5 5 5 4 3 3 4 4 3 2 3 4 4 3 4 4 3 3 4 4 4 4 4 4 3 2 2 2 1
6 6 6 5 5 4 4 2 3 4 4 2 2 2 3 4 4 4 5 5 5 5 4 4 4 3 2 3 2 2 2 2 3 3 4 4 4 4 4 4 4 4 4 4 4 4 3 3 3
6 7 6 5 5 4 4 2 3 5 4 3 2 2 2 4 4 5 5 5 5 5 5 4 4 3 3 3 2 2 2 2 2 3 3 3 3 3 3 4 4 4 4 4 5 5 4 4 4
Wind_Direction
268 251 247 259 264 234 65 66 72 65 54 45 45 54 59 50 50 86 114 76 86 94 99 91 79 72 64 57 55 55 58 63 68 70 69 69 71 73 75 76 78 78 80 80 79 78 78 80 81
277 275 267 244 244 88 74 75 72 65 66 64 60 61 71 65 73 97 98 82 90 93 93 90 85 75 66 59 58 59 62 68 72 73 72 71 72 75 79 80 80 80 82 82 79 77 75 77 80
268 268 264 256 19 64 79 77 80 80 74 57 67 60 58 66 74 96 104 98 89 90 92 92 88 79 70 64 61 61 64 71 77 80 76 72 74 76 76 82 86 85 84 82 79 76 73 75 77
270 262 252 293 58 67 80 88 94 96 84 68 70 81 74 61 82 102 106 101 97 98 100 100 95 88 79 72 67 64 64 74 83 85 84 79 80 80 78 81 86 85 83 83 79 75 74 73 74
247 258 256 90 78 75 73 79 83 79 79 72 77 91 89 80 90 101 102 97 100 103 106 108 103 97 88 79 73 69 67 74 84 88 87 84 84 84 83 84 87 87 85 84 80 76 74 70 69
271 255 250 85 88 87 87 81 74 67 75 83 97 101 98 107 101 106 107 98 99 105 109 115 115 107 96 87 80 76 72 75 82 88 90 90 88 87 87 86 90 89 90 90 85 79 75 73 70
278 307 53 88 103 104 87 69 67 72 68 57 79 104 114 114 110 108 101 94 89 98 113 125 130 123 111 100 93 88 82 83 85 89 94 95 95 95 93 90 94 96 95 96 93 87 80 75 73
300 309 17 82 101 96 92 91 78 66 81 65 52 92 118 124 124 118 108 102 104 103 110 122 132 133 133 126 116 111 106 103 103 106 105 108 109 105 101 97 98 103 102 101 98 97 96 88 80
284 289 35 55 87 96 103 99 93 85 84 80 75 87 112 126 130 128 123 118 111 109 112 123 125 127 129 132 131 140 139 139 134 135 129 130 124 117 114 107 107 110 112 110 108 110 109 103 87
228 26 31 51 77 92 111 101 102 121 109 109 106 106 117 130 137 139 138 133 128 128 126 121 126 122 121 115 128 140 139 148 158 146 140 132 109 102 108 117 119 123 127 126 124 127 131 117 99
147 45 12 52 85 95 106 95 90 97 107 119 129 129 133 143 147 148 146 138 133 128 113 104 107 107 109 103 107 102 111 124 122 104 111 100 102 110 114 124 133 136 140 139 141 154 124 86 80
170 94 23 46 71 102 107 102 79 75 91 109 122 132 141 148 148 146 143 134 127 116 108 92 92 99 99 97 99 103 91 91 86 85 93 93 88 93 101 96 97 108 100 92 99 104 88 76 75
186 165 157 116 105 145 191 164 146 125 128 121 127 135 144 146 144 142 140 130 127 120 121 108 92 85 96 96 101 98 82 79 94 88 102 104 91 87 87 87 85 88 92 91 85 80 70 61 58
203 198 217 188 183 204 214 239 195 164 153 146 144 144 146 143 146 146 146 135 136 135 133 117 109 102 102 107 103 95 98 92 80 75 90 100 95 89 85 81 74 76 88 98 100 98 87 75 69
215 219 242 220 205 198 240 250 207 174 162 157 156 152 147 149 159 155 142 136 137 139 135 127 126 105 90 87 90 96 88 88 73 62 75 95 103 95 91 91 87 85 82 86 89 89 95 97 89
236 227 226 230 215 192 219 248 185 165 166 164 162 154 149 157 169 159 147 142 141 139 135 135 131 115 102 94 89 92 84 76 75 61 60 82 91 90 85 88 84 94 84 81 88 98 91 84 80
237 244 240 219 204 202 224 241 179 176 174 176 174 165 164 168 174 161 155 149 146 141 135 130 121 120 114 108 105 86 92 88 80 68 53 72 90 94 86 89 102 100 88 82 90 84 96 96 89
254 257 257 236 206 202 231 238 194 191 187 188 179 176 172 176 175 165 162 150 142 138 139 135 131 135 121 116 108 93 87 93 84 77 64 65 82 96 96 92 87 86 81 76 84 88 85 102 115
282 287 285 269 209 216 245 251 205 188 187 189 181 181 175 176 173 163 156 146 144 143 140 134 141 148 130 123 120 120 117 113 100 97 89 80 76 96 98 88 82 82 93 101 106 105 101 90 109
275 273 273 262 222 252 262 260 219 182 185 189 190 186 181 174 168 160 159 155 158 155 151 147 147 149 136 135 137 139 132 134 121 109 104 109 91 89 104 107 103 93 85 80 88 93 108 145 175
266 266 283 300 287 255 257 256 223 181 181 180 193 191 181 173 168 160 163 159 157 157 157 156 155 148 138 141 132 124 111 131 119 120 118 130 105 95 90 99 117 131 124 113 114 128 116 168 283
274 284 285 279 276 269 249 268 224 169 171 182 184 191 185 169 159 154 155 153 157 155 155 157 157 148 141 139 143 147 158 168 157 150 153 160 125 116 111 105 119 129 124 136 173 135 139 128 229
285 290 279 274 272 274 256 249 214 160 178 180 177 186 179 161 153 148 149 149 156 151 148 147 143 139 141 141 149 168 170 162 152 144 152 160 155 156 157 156 156 153 149 161 150 130 161 158 183
282 276 270 257 254 261 253 244 200 172 164 160 166 166 158 151 147 146 144 141 145 140 144 147 148 143 140 147 162 183 178 164 157 154 154 161 162 169 170 162 153 145 150 150 149 149 158 179 198
248 268 274 247 226 244 248 228 161 126 96 102 130 140 147 147 143 142 144 148 145 145 149 153 153 151 156 174 186 186 178 179 181 172 173 175 172 174 177 172 170 160 156 158 162 163 185 201 211
256 261 270 286 290 301 265 216 121 111 103 88 91 105 125 132 136 139 143 143 144 149 154 159 161 163 166 186 196 186 171 176 182 182 178 180 183 180 175 172 171 168 169 172 161 166 204 195 207
273 272 279 284 284 280 250 155 136 122 114 102 101 107 131 141 136 140 147 146 145 146 148 157 160 162 167 192 204 191 174 181 182 188 187 179 184 182 173 170 175 174 174 178 171 176 202 187 205
264 289 290 272 288 287 281 244 162 134 110 101 115 126 128 140 141 137 142 146 147 147 149 153 157 171 174 188 206 189 185 187 183 189 191 188 186 178 179 180 178 180 182 181 174 174 199 184 184
247 256 269 283 276 277 288 341 62 99 87 92 93 93 131 140 141 138 135 145 142 136 143 158 163 158 170 194 200 171 202 194 174 199 192 178 184 185 189 192 191 189 188 184 177 194 198 189 202
271 270 271 270 281 280 276 276 70 79 69 61 45 78 85 120 130 130 137 143 141 146 161 173 176 171 174 186 194 185 187 190 195 200 196 180 183 186 197 199 195 200 197 190 188 203 201 201 209
Height
1494 1493 1494 1496 1497 1500 1501 1497 1493 1494 1495 1497 1497 1497 1499 1503 1508 1518 1518 1516 1516 1514 1513 1512 1512 1511 1511 1511 1511 1511 1511 1511 1511 1511 1512 1513 1513 1514 1515 1515 1516 1517 1517 1518 1519 1519 1520 1520 1521
1494 1495 1497 1496 1499 1506 1505 1496 1496 1496 1498 1498 1498 1499 1501 1506 1510 1514 1516 1516 1516 1515 1514 1513 1513 1513 1512 1512 1512 1511 1510 1510 1511 1512 1513 1514 1514 1515 1516 1517 1517 1518 1518 1519 1520 1521 1522 1522 1522
1494 1496 1496 1494 1497 1503 1504 1496 1496 1497 1498 1498 1500 1502 1505 1510 1513 1515 1516 1517 1517 1516 1515 1515 1514 1514 1513 1513 1512 1511 1510 1510 1511 1512 1514 1515 1515 1516 1517 1518 1518 1519 1519 1521 1521 1522 1523 1523 1524
1497 1497 1496 1496 1499 1496 1495 1496 1496 1498 1499 1500 1500 1504 1510 1513 1514 1516 1517 1518 1517 1517 1516 1516 1516 1515 1515 1514 1514 1512 1511 1510 1511 1513 1515 1516 1517 1517 1518 1519 1519 1520 1521 1522 1522 1523 1524 1525 1525
1498 1497 1497 1500 1498 1495 1494 1496 1497 1498 1499 1500 1502 1507 1512 1515 1516 1517 1518 1518 1518 1518 1518 1517 1517 1517 1516 1516 1515 1514 1513 1512 1513 1514 1516 1517 1518 1519 1520 1520 1521 1521 1522 1523 1524 1525 1526 1526 1527
1498 1495 1502 1504 1500 1496 1496 1497 1498 1499 1500 1502 1504 1507 1513 1516 1517 1518 1519 1519 1519 1519 1519 1519 1519 1518 1518 1517 1517 1516 1516 1515 1516 1517 1518 1519 1520 1521 1521 1522 1522 1523 1524 1524 1525 1526 1527 1528 1529
1498 1497 1500 1500 1501 1499 1497 1498 1499 1500 1501 1503 1504 1507 1513 1515 1517 1518 1519 1520 1520 1521 1520 1520 1520 1520 1520 1519 1519 1518 1518 1518 1519 1519 1520 1521 1522 1522 1523 1523 1524 1524 1525 1526 1527 1528 1529 1529 1530
1497 1498 1499 1499 1501 1501 1498 1499 1500 1501 1503 1505 1506 1507 1513 1516 1517 1519 1520 1521 1522 1522 1522 1522 1522 1521 1521 1521 1521 1521 1520 1521 1521 1522 1523 1523 1524 1524 1525 1525 1526 1526 1527 1528 1529 1529 1530 1531 1532
1497 1500 1503 1500 1500 1499 1498 1499 1501 1503 1504 1506 1507 1509 1513 1515 1517 1519 1520 1522 1522 1523 1523 1523 1523 1523 1523 1523 1523 1523 1523 1523 1523 1524 1525 1525 1525 1526 1526 1527 1527 1528 1528 1529 1530 1531 1532 1533 1534
1497 1502 1500 1496 1496 1498 1499 1500 1501 1502 1504 1506 1509 1511 1513 1516 1518 1519 1520 1522 1523 1523 1524 1524 1524 1525 1525 1525 1524 1524 1524 1525 1525 1525 1526 1527 1527 1528 1528 1529 1529 1529 1530 1531 1532 1533 1533 1534 1535
1496 1499 1497 1496 1496 1498 1499 1500 1501 1502 1504 1506 1508 1511 1514 1516 1517 1519 1520 1521 1522 1524 1524 1525 1525 1526 1526 1526 1526 1526 1526 1526 1527 1527 1528 1528 1529 1529 1530 1530 1530 1531 1532 1532 1533 1534 1535 1536 1536
1496 1496 1496 1497 1498 1499 1500 1501 1502 1503 1505 1506 1507 1510 1513 1515 1517 1518 1520 1521 1522 1524 1525 1526 1526 1526 1526 1527 1527 1527 1527 1527 1528 1529 1529 1530 1530 1530 1531 1531 1532 1533 1533 1534 1535 1535 1536 1537 1538
1495 1496 1497 1498 1498 1499 1500 1500 1502 1503 1504 1506 1508 1510 1513 1515 1517 1518 1520 1521 1522 1524 1525 1526 1526 1527 1527 1527 1527 1528 1528 1528 1529 1530 1530 1531 1531 1532 1532 1532 1533 1534 1534 1535 1535 1536 1537 1538 1538
1495 1496 1496 1497 1498 1499 1499 1500 1501 1503 1504 1506 1508 1510 1512 1514 1516 1518 1519 1521 1522 1523 1525 1526 1527 1527 1527 1527 1528 1528 1529 1529 1530 1530 1531 1532 1532 1532 1533 1533 1534 1535 1535 1536 1537 1537 1538 1539 1539
1495 1496 1496 1496 1496 1497 1499 1501 1499 1500 1502 1504 1507 1509 1511 1514 1516 1517 1519 1520 1522 1523 1524 1525 1526 1527 1527 1528 1528 1529 1529 1530 1530 1531 1532 1532 1532 1533 1534 1534 1535 1536 1536 1537 1537 1538 1539 1539 1540
1493 1496 1502 1496 1494 1495 1501 1505 1497 1498 1500 1503 1505 1508 1510 1512 1514 1516 1518 1519 1521 1522 1524 1525 1526 1527 1527 1528 1528 1529 1529 1530 1531 1531 1532 1532 1533 1533 1534 1534 1535 1536 1537 1537 1538 1539 1540 1540 1541
1495 1501 1500 1495 1491 1492 1496 1500 1495 1496 1498 1501 1503 1505 1508 1510 1513 1515 1516 1518 1520 1521 1523 1524 1525 1527 1527 1528 1529 1529 1530 1530 1531 1531 1532 1532 1533 1533 1534 1535 1535 1536 1537 1538 1539 1539 1540 1541 1541
1499 1496 1495 1495 1489 1490 1494 1495 1492 1494 1495 1498 1500 1503 1506 1508 1511 1513 1515 1517 1519 1520 1522 1523 1525 1526 1527 1528 1529 1529 1530 1530 1531 1531 1532 1532 1533 1533 1534 1535 1535 1536 1537 1537 1538 1539 1540 1541 1542
1490 1493 1494 1491 1486 1490 1492 1491 1489 1490 1493 1495 1498 1500 1503 1506 1508 1511 1513 1515 1517 1519 1521 1522 1523 1525 1526 1527 1528 1529 1529 1530 1531 1531 1531 1532 1533 1533 1534 1534 1535 1536 1537 1537 1538 1539 1540 1541 1542
1489 1493 1493 1488 1484 1488 1490 1488 1485 1487 1489 1492 1495 1497 1500 1503 1505 1508 1511 1513 1516 1518 1520 1521 1522 1524 1525 1526 1527 1528 1529 1530 1530 1531 1531 1532 1533 1533 1534 1534 1535 1535 1536 1537 1538 1539 1540 1541 1542
1489 1490 1491 1491 1486 1484 1489 1491 1485 1484 1486 1489 1492 1494 1497 1500 1503 1506 1509 1511 1514 1516 1518 1520 1521 1523 1524 1525 1526 1527 1528 1529 1530 1530 1531 1532 1532 1533 1533 1534 1535 1535 1536 1536 1537 1538 1539 1540 1541
1491 1485 1486 1488 1493 1494 1489 1503 1488 1482 1485 1487 1490 1492 1494 1497 1500 1503 1507 1510 1512 1514 1517 1519 1520 1521 1522 1523 1525 1526 1527 1528 1529 1529 1530 1531 1532 1532 1533 1533 1534 1535 1536 1536 1537 1537 1538 1539 1540
1486 1483 1484 1486 1490 1493 1487 1495 1491 1481 1485 1485 1486 1489 1492 1495 1498 1501 1505 1508 1510 1513 1515 1517 1519 1520 1521 1522 1523 1525 1526 1527 1528 1529 1529 1530 1531 1531 1532 1533 1533 1534 1535 1535 1536 1537 1538 1538 1539
1482 1484 1484 1484 1490 1503 1488 1491 1494 1484 1482 1482 1484 1487 1491 1494 1496 1500 1503 1506 1508 1510 1512 1515 1516 1518 1519 1520 1521 1523 1525 1526 1527 1528 1528 1529 1530 1530 1531 1532 1533 1533 1534 1534 1535 1536 1537 1537 1538
1484 1492 1504 1505 1506 1501 1481 1486 1490 1479 1477 1479 1482 1485 1489 1492 1495 1498 1501 1504 1506 1508 1510 1512 1514 1516 1517 1519 1520 1521 1523 1524 1525 1526 1527 1528 1528 1529 1530 1530 1531 1532 1532 1533 1534 1535 1535 1536 1537
1483 1488 1504 1514 1508 1497 1483 1487 1484 1475 1477 1480 1482 1485 1488 1491 1494 1496 1499 1502 1504 1506 1508 1510 1512 1514 1515 1517 1519 1520 1521 1522 1523 1524 1525 1526 1527 1527 1528 1529 1529 1530 1531 1532 1533 1533 1534 1535 1536
1485 1484 1482 1494 1496 1501 1489 1483 1479 1476 1478 1480 1483 1486 1488 1490 1493 1495 1497 1500 1502 1504 1506 1508 1510 1512 1513 1515 1517 1518 1519 1520 1521 1522 1523 1524 1525 1525 1526 1527 1528 1528 1529 1530 1531 1531 1532 1533 1534
1480 1482 1486 1494 1505 1508 1496 1487 1489 1483 1481 1482 1484 1486 1487 1489 1492 1494 1495 1497 1500 1502 1504 1506 1508 1510 1511 1513 1514 1516 1517 1518 1519 1520 1521 1522 1522 1523 1524 1525 1526 1527 1527 1528 1529 1529 1530 1531 1531
1482 1484 1485 1489 1491 1505 1510 1500 1479 1481 1481 1482 1483 1485 1487 1488 1490 1492 1494 1496 1498 1500 1502 1504 1506 1507 1509 1511 1512 1513 1514 1515 1516 1517 1518 1519 1520 1521 1522 1523 1524 1524 1525 1526 1526 1527 1528 1528 1529
1478 1481 1485 1498 1496 1492 1502 1501 1478 1479 1481 1483 1484 1485 1486 1487 1489 1491 1493 1495 1497 1499 1500 1502 1504 1505 1507 1508 1509 1511 1512 1513 1514 1514 1515 1516 1517 1518 1519 1520 1521 1522 1523 1523 1524 1524 1525 1526 1526